{"data":{"norad_id":56375,"intl_designator":"2023-061B","name":"STARLINK-6158","alt_names":[],"object_type":"PAYLOAD","status":"ACTIVE","operator":null,"country":"US","launch_date":"2023-05-04","launch_site_code":"AFETR","launch_vehicle":null,"mission":null,"orbit_class":"UNKNOWN","rcs_meters":null,"size_class":null,"mass_kg":null,"dimensions":null,"purposes":["comms"],"wikipedia_slug":null,"has_3d_model":false,"image_url":null,"decayed_at":null,"tle_current":{"epoch":"2026-09-19T04:19:13.537920Z","epoch_age_seconds":225983,"freshness":"STALE","line1":"1 56375U 23061B   26262.18001780 -.00002452  00000+0 -79584-4 0  9992","line2":"2 56375  43.0034 184.9886 0001272 262.4644  97.6063 15.27585796186344","mean_motion":15.27585796,"eccentricity":0.0001272,"inclination_deg":43.0034,"raan_deg":184.9886,"arg_perigee_deg":262.4644,"mean_anomaly_deg":97.6063,"bstar":-7.9584e-5,"rev_number":18634,"period_min":94.266391044657,"perigee_km":482.1590001216,"apogee_km":483.90448144926,"semimajor_km":6861.1687407854,"source":"CELESTRAK","updated_at":"2026-09-21T09:00:33.430330Z"}}}